ECMWFFLT2_500_spd_021.txt.gz
Wind_Speed
17 16 16 16 17 18 18 18 18 18 19 20 20 21 21 21 22 22 22 22 21 21 21 20 20 19 19 18 18 18 19 20 20 21 21 21 20 19 18 18 17 16 16 17 18 19 19 19 19 19 19 22 24 25 26 25 22 22 25 28 28 27
15 15 16 17 17 18 18 19 19 19 19 20 20 21 22 22 22 22 22 21 21 21 20 20 20 19 19 19 19 18 19 19 19 20 21 21 21 20 19 18 16 15 16 16 17 18 18 18 18 18 19 21 23 26 27 27 24 22 24 28 29 29
15 16 16 17 17 18 19 19 19 19 20 20 21 21 22 22 22 22 21 21 21 21 20 20 19 19 20 20 19 19 18 18 18 19 20 21 21 21 20 18 16 15 16 16 16 16 17 17 18 19 21 22 23 25 28 29 27 23 23 27 30 30
15 16 17 18 19 19 19 19 19 19 20 21 21 22 22 22 22 22 22 21 20 20 20 20 19 19 20 20 20 19 17 16 17 19 20 20 21 21 20 19 16 15 15 15 15 15 16 17 18 21 23 24 24 25 28 30 29 25 24 26 30 31
15 16 17 18 18 19 19 19 20 20 21 21 21 22 23 23 22 22 21 20 20 20 20 19 19 19 20 20 19 18 17 17 17 18 18 19 20 20 19 18 16 14 15 16 16 16 17 18 19 19 20 21 21 24 26 28 29 26 25 26 29 31
15 16 16 17 18 18 18 19 20 21 22 21 21 23 24 24 23 21 21 20 20 19 19 18 18 19 19 18 18 18 18 17 17 16 17 18 18 18 18 17 16 14 15 16 17 17 18 19 20 19 18 18 18 22 24 25 28 29 28 27 27 30
15 15 15 16 17 18 18 19 20 21 22 21 21 22 24 24 23 22 21 21 21 19 18 18 18 18 18 16 16 17 17 16 16 15 16 16 17 17 17 16 15 15 15 17 18 18 19 19 19 19 19 18 18 21 23 23 26 30 30 29 27 29
15 15 15 16 17 18 18 19 20 21 22 22 21 22 23 24 23 22 21 21 21 20 19 18 17 17 17 16 16 16 16 16 16 15 15 16 17 17 16 15 15 15 16 17 18 18 18 19 18 19 19 20 20 20 20 20 24 30 32 31 29 28
15 15 16 16 17 18 18 20 21 21 21 21 21 21 22 23 22 21 21 21 21 20 19 17 17 17 17 17 16 15 15 15 16 15 16 17 17 16 14 14 14 15 16 17 18 17 18 19 19 19 20 21 21 20 20 18 22 28 32 33 31 28
15 16 16 16 16 17 18 18 19 20 20 20 20 20 21 21 21 20 20 20 19 18 17 16 16 17 18 17 16 15 15 15 15 15 15 16 15 15 15 15 14 14 15 17 18 17 18 18 19 19 20 21 21 21 21 19 21 27 32 35 33 29
15 16 16 16 16 15 16 17 17 18 18 19 19 19 19 20 20 19 19 19 18 18 17 16 16 17 16 15 15 16 16 15 14 13 14 15 14 15 16 16 15 15 15 16 17 17 17 17 18 19 20 21 22 22 22 20 20 24 31 36 35 32
15 16 16 16 15 15 15 16 16 17 18 18 18 18 18 18 18 17 17 18 18 18 17 17 17 17 16 15 15 15 15 14 13 13 13 13 14 15 16 16 17 16 15 15 16 17 16 16 18 19 21 21 22 23 22 21 20 22 28 35 37 35
16 16 15 15 15 15 15 16 16 16 17 18 18 19 18 17 17 17 16 17 17 17 17 17 17 17 17 15 14 14 13 13 12 12 13 13 13 14 15 17 18 17 15 15 15 16 16 16 18 20 22 22 21 22 22 22 21 21 26 33 38 39
17 17 16 15 15 14 14 16 17 17 17 18 19 19 19 19 17 17 16 16 16 16 16 16 17 17 16 14 14 14 13 12 11 11 13 13 13 13 15 17 18 17 15 16 16 16 16 17 17 16 17 17 18 20 22 22 21 19 23 30 37 40
18 17 16 15 14 15 14 15 16 16 17 18 19 19 20 20 19 17 17 17 16 15 16 16 16 16 14 13 13 13 12 11 11 11 12 12 12 14 15 17 18 16 16 17 16 16 17 17 16 13 13 14 14 16 19 21 21 18 20 26 34 40
18 16 15 14 14 15 15 15 16 16 16 18 19 19 19 20 19 19 18 18 17 16 16 15 14 13 13 13 12 12 11 10 10 10 11 10 10 12 14 16 17 16 16 17 17 17 18 17 15 13 14 14 14 14 15 17 20 20 19 22 30 38
17 16 14 14 14 15 16 16 16 16 16 16 17 18 19 19 19 19 19 19 19 19 17 15 13 13 13 13 11 11 10 10 10 10 11 10 10 11 13 15 16 16 16 16 17 17 17 17 16 15 15 15 15 15 14 15 17 20 21 23 27 34
17 16 14 14 14 15 16 17 18 18 17 15 16 17 18 19 19 19 19 19 20 20 19 18 15 13 13 13 12 12 11 11 11 11 11 10 11 11 13 14 15 15 15 15 16 16 16 16 16 16 16 17 16 15 15 15 16 17 20 23 25 30
18 17 15 14 14 15 16 17 18 19 19 17 16 16 16 18 19 19 19 17 18 19 19 18 17 15 14 14 14 13 12 12 12 12 11 11 11 11 12 14 15 15 15 14 15 16 15 15 15 17 18 17 17 17 16 15 15 16 17 20 23 26
19 18 16 14 13 13 14 16 17 18 19 18 17 17 17 17 18 19 19 18 17 17 17 18 18 17 16 15 15 15 14 13 13 12 11 11 11 12 12 14 15 15 15 14 15 15 15 14 15 17 18 18 18 16 15 13 14 16 17 18 20 24
19 18 16 14 12 11 11 13 15 17 18 19 19 18 18 17 18 18 19 18 18 18 18 18 18 18 18 17 17 17 16 15 14 13 12 12 12 13 14 15 15 15 14 14 16 16 15 14 14 16 17 18 18 15 14 14 15 17 18 19 19 21
20 19 17 13 11 10 9 10 12 15 17 18 18 19 18 18 18 18 19 19 19 18 18 18 19 19 19 19 19 19 18 16 15 14 13 13 13 13 15 16 15 14 14 14 16 17 16 16 15 15 15 16 16 15 15 16 17 17 18 18 18 17
20 20 17 14 11 10 9 9 11 14 15 16 17 18 18 18 17 17 18 19 19 19 19 18 18 19 19 19 19 19 18 17 16 15 15 14 14 14 15 17 16 15 15 15 16 17 17 17 15 14 14 15 15 16 17 18 19 18 18 18 18 17
22 21 18 14 11 10 9 9 11 14 15 15 16 16 17 17 17 17 17 18 19 19 19 18 18 18 18 18 19 18 18 18 17 16 16 15 15 15 15 17 17 17 17 17 16 17 17 16 16 16 16 16 16 17 17 18 19 18 18 18 19 20
24 23 19 15 12 10 9 9 11 13 14 15 16 16 16 17 17 17 18 18 18 18 18 18 18 18 18 18 18 18 18 18 17 17 16 16 16 16 16 17 18 19 18 18 17 17 17 16 16 16 16 16 17 17 16 17 18 19 18 19 19 19
26 24 20 16 12 11 9 9 10 12 14 14 15 16 16 16 17 17 18 18 18 18 18 18 18 18 18 18 18 18 18 18 18 17 17 17 18 18 18 18 19 19 19 19 19 18 18 17 16 16 16 17 17 16 16 17 18 18 17 18 17 17
26 24 20 17 15 13 11 9 10 12 14 15 15 16 15 16 16 16 17 18 18 18 18 18 18 18 18 18 18 18 18 18 18 18 18 19 19 19 19 19 19 19 20 20 20 20 19 19 17 17 18 18 17 17 17 18 17 16 17 18 17 17
26 24 20 18 17 16 13 10 10 12 15 16 16 16 16 16 16 16 17 18 19 18 18 18 18 17 17 17 17 18 18 19 19 19 19 19 19 19 20 20 20 20 20 21 21 21 20 20 19 18 18 18 18 18 19 19 18 18 19 20 19 19
27 24 21 20 20 19 16 12 11 13 16 18 17 17 17 16 16 16 17 18 19 19 18 18 17 17 17 17 17 18 18 19 19 19 19 19 19 20 20 21 21 20 21 21 21 22 21 21 20 20 19 19 19 20 21 20 20 21 22 21 21 21
27 22 21 21 22 22 19 15 13 14 16 18 19 18 18 17 17 17 17 17 18 18 18 18 18 17 17 17 17 18 18 18 19 19 19 19 19 19 20 21 21 20 20 20 20 21 21 21 20 20 20 20 20 21 21 22 22 23 23 24 23 23
29 22 22 22 24 25 23 19 16 15 17 19 20 19 18 18 18 17 16 16 17 17 17 17 18 17 17 17 17 17 18 18 18 18 18 19 19 19 19 19 20 20 19 19 19 19 18 18 19 20 20 20 21 21 22 22 23 24 24 25 26 25
34 31 27 24 25 26 26 23 20 17 17 20 21 20 19 18 18 17 16 15 15 15 16 16 16 16 16 16 16 17 17 17 17 18 18 18 18 18 18 18 18 18 18 18 18 17 17 16 16 17 19 20 21 21 22 22 23 24 24 25 26 26
36 40 33 27 25 26 27 27 24 20 18 20 21 19 18 18 18 17 16 14 14 15 15 15 15 15 15 15 15 16 16 16 16 17 17 16 16 16 16 16 16 16 16 16 16 15 15 15 14 15 16 18 19 21 21 22 23 23 23 24 25 26
35 41 34 27 26 26 27 28 27 23 19 20 20 18 18 18 18 17 15 14 13 14 15 15 15 15 15 15 15 15 15 15 15 15 15 15 15 15 15 14 14 14 14 14 14 13 13 13 13 14 15 16 17 19 20 21 22 22 22 22 23 24
32 38 33 27 26 27 27 26 28 26 21 19 19 18 18 18 18 17 15 13 13 13 14 15 15 15 16 16 15 15 15 15 15 15 15 15 15 15 14 14 14 13 13 12 12 12 11 11 12 13 14 14 15 16 17 18 20 20 20 20 21 21
28 33 33 29 26 25 25 25 27 27 22 19 18 17 17 18 18 17 15 14 14 13 14 15 15 15 15 16 16 16 16 15 15 15 15 15 15 15 15 14 14 13 12 12 11 11 10 10 11 11 12 13 14 14 15 15 17 18 18 17 18 18
25 26 29 29 25 23 26 27 26 26 23 19 18 17 17 17 17 17 16 15 15 15 15 16 16 16 15 15 15 15 16 16 16 16 16 16 15 15 15 15 15 14 13 13 12 11 11 10 10 11 12 13 13 14 14 14 14 15 15 15 14 14

ECMWFFLT2_500_spd_024.txt.gz
Wind_Speed
15 13 12 12 11 12 14 15 17 18 18 19 19 20 21 22 22 22 22 22 22 22 22 22 21 21 20 19 19 18 18 18 18 18 18 18 18 18 18 18 18 18 18 19 19 20 22 22 23 23 22 22 20 17 19 22 23 22 23 26 28 28
12 9 7 8 10 12 14 16 17 17 18 19 20 21 22 23 23 22 22 22 22 22 22 22 21 21 19 18 19 19 19 19 20 20 19 19 18 18 18 18 18 18 18 18 19 20 21 23 23 22 22 22 21 19 19 22 24 24 24 25 28 29
7 5 7 9 12 14 16 17 18 18 19 20 21 22 23 24 23 23 23 23 23 22 22 21 21 20 19 19 19 19 19 20 20 21 21 20 19 18 18 18 18 18 17 18 19 20 21 22 22 22 21 21 21 20 20 22 24 26 25 25 27 29
6 7 10 12 14 16 17 18 18 19 20 21 22 23 24 24 24 24 24 24 24 23 22 21 20 19 19 19 19 19 19 20 20 21 21 20 19 18 18 18 17 17 17 17 18 20 21 21 21 22 21 21 21 20 21 22 24 26 27 26 26 29
10 11 13 14 16 17 17 18 18 19 21 22 22 23 24 24 24 24 24 24 24 23 22 21 20 19 19 19 19 19 19 19 20 21 21 20 19 18 18 16 16 17 17 17 18 19 20 20 21 21 22 22 21 20 21 24 25 26 28 28 27 28
15 14 14 14 15 15 16 17 18 19 21 22 22 23 23 24 24 24 24 24 24 23 21 20 19 19 19 19 19 19 19 19 20 21 21 20 19 18 17 16 15 16 17 17 17 19 20 20 21 21 22 22 21 20 20 23 26 28 29 30 29 28
17 14 12 13 13 13 14 16 17 19 20 22 22 22 23 23 23 23 23 23 23 22 21 20 19 19 19 19 19 19 18 19 20 20 20 19 18 17 16 15 15 15 16 16 17 19 20 21 22 22 22 22 23 21 18 19 23 26 29 31 32 31
13 10 9 10 11 12 13 15 16 17 19 20 21 21 21 21 22 22 22 22 22 21 20 20 19 19 19 19 18 18 17 18 18 19 18 19 18 17 16 15 15 15 15 16 17 20 21 23 23 23 23 23 23 22 19 18 20 23 26 29 32 34
9 7 7 8 9 11 12 13 14 16 17 18 18 19 19 19 19 20 20 20 20 19 19 19 19 19 19 18 17 16 16 17 17 17 17 18 18 17 16 15 15 15 15 16 17 19 21 23 24 24 23 23 23 21 20 20 20 21 23 26 31 35
6 6 6 7 9 10 11 11 12 13 14 15 16 17 17 17 17 17 17 17 17 16 16 17 17 17 17 17 16 15 16 17 18 17 17 18 18 17 16 15 15 16 16 16 17 18 19 21 23 23 23 23 23 22 21 21 21 21 22 24 29 35
5 5 6 8 9 10 10 10 11 11 12 13 14 15 15 15 15 15 15 14 14 13 14 15 16 15 15 16 15 15 16 17 17 17 17 17 17 16 16 16 16 16 16 16 16 16 17 19 21 21 21 22 22 22 22 22 22 22 22 23 27 34
5 6 7 9 10 10 10 10 11 11 12 12 13 14 14 14 14 13 13 12 12 12 12 13 14 14 13 14 15 15 15 16 16 16 16 16 16 16 16 16 17 17 17 17 17 17 17 18 19 19 20 20 20 20 21 22 22 22 22 23 25 31
7 8 9 11 11 11 12 12 12 12 13 13 13 13 13 14 13 13 11 10 10 11 11 11 12 11 12 13 14 15 15 15 15 15 16 16 16 16 15 16 17 17 17 18 18 18 17 18 19 19 19 20 19 19 20 21 21 21 22 24 24 27
7 8 10 12 12 13 13 13 13 13 12 12 12 12 13 13 13 13 12 10 9 9 10 10 10 10 10 11 13 15 16 15 14 14 15 16 16 16 16 16 16 17 18 18 17 18 18 18 19 20 20 19 18 19 19 20 21 22 23 25 25 25
6 7 10 12 13 13 13 14 13 13 13 12 13 13 14 14 14 13 12 10 9 9 9 8 8 9 9 11 12 13 15 15 14 14 15 15 15 15 16 17 17 17 18 19 18 18 17 17 18 20 19 17 17 17 18 18 19 22 25 26 26 25
6 7 8 10 12 12 13 14 14 13 13 13 13 13 14 14 14 13 11 10 9 9 9 8 7 7 8 9 11 12 14 14 13 13 14 15 14 14 14 16 16 16 18 18 18 18 17 16 18 19 18 16 16 18 18 17 16 19 24 26 26 26
7 6 8 10 11 12 13 14 15 15 14 14 14 13 13 13 12 12 10 10 10 10 9 9 8 7 7 8 10 11 12 13 12 11 12 13 13 13 13 14 15 15 16 17 17 17 16 16 17 19 18 17 18 18 19 17 16 17 21 24 25 26
8 8 9 11 11 12 13 14 15 15 15 14 14 13 12 12 11 10 9 9 9 10 10 9 9 8 8 9 10 10 11 12 12 11 11 12 12 12 12 13 14 15 15 16 16 16 15 15 16 17 18 19 19 18 19 18 17 17 18 20 22 24
11 9 10 12 12 12 13 14 15 15 15 14 13 12 12 11 10 9 8 8 8 9 9 9 9 9 9 9 10 10 12 13 13 12 12 12 12 12 12 13 13 13 13 15 15 15 15 15 15 16 17 18 19 19 18 18 18 18 18 18 19 22
12 10 11 13 13 13 14 15 16 16 14 14 13 12 11 11 11 10 9 8 8 8 8 9 9 10 10 10 10 11 12 13 13 13 13 12 11 11 13 13 13 12 12 13 15 15 15 14 14 15 15 16 18 19 18 17 17 18 18 17 18 19
12 11 11 13 14 15 15 15 17 16 15 14 13 12 12 12 12 11 10 10 9 8 8 8 9 10 11 11 12 12 12 13 13 13 13 13 13 13 14 14 14 13 13 13 14 14 14 15 15 15 14 14 16 17 17 16 16 17 17 16 17 17
14 13 13 14 15 15 14 14 16 17 16 16 15 14 13 12 12 12 11 10 10 9 9 9 9 10 11 12 13 13 14 14 14 15 15 15 15 14 15 15 15 14 14 14 14 14 14 14 15 15 15 15 15 15 15 15 16 16 17 17 18 17
15 14 13 14 16 16 13 13 15 16 16 16 16 16 15 15 13 12 12 12 11 10 10 9 9 10 11 12 13 14 15 15 16 16 16 16 16 16 16 17 16 16 15 15 15 15 14 14 15 16 16 16 16 14 14 14 15 16 17 18 19 18
16 16 16 16 16 17 14 12 13 14 15 16 16 16 16 15 15 14 13 12 12 11 11 11 10 11 11 12 13 14 15 15 16 17 17 17 17 18 18 18 18 17 16 16 16 16 15 15 15 15 16 16 16 16 16 16 16 16 18 19 19 17
16 18 19 19 17 17 15 12 12 13 14 15 15 14 14 14 14 14 13 13 13 12 11 11 11 12 12 12 13 13 13 14 15 16 16 17 17 18 17 18 18 17 17 17 17 17 16 15 15 15 15 15 16 17 18 18 17 16 17 17 17 17
16 18 21 22 19 18 16 13 12 13 13 14 14 13 13 13 13 13 13 13 12 12 12 11 11 12 12 13 13 13 13 13 14 14 15 16 16 17 17 17 17 17 17 18 18 18 17 16 16 15 15 15 17 18 18 18 18 17 16 16 16 17
16 18 21 23 21 18 17 15 13 13 13 13 13 13 13 12 12 12 13 13 12 12 12 11 11 11 12 12 12 12 12 13 13 13 14 15 15 16 17 17 18 18 18 19 19 19 18 18 18 17 16 17 17 18 19 19 19 18 17 17 17 17
16 17 20 22 22 21 19 18 16 13 13 13 13 14 13 12 12 12 13 14 13 12 11 11 11 11 11 12 12 12 12 12 12 13 14 14 15 16 17 17 18 18 19 19 20 20 20 19 19 18 18 18 18 19 19 20 20 20 18 17 16 17
17 18 19 20 22 22 21 20 18 14 13 13 14 15 15 14 13 13 13 14 14 13 12 11 11 11 11 12 12 12 12 12 12 13 14 14 15 16 17 17 18 19 19 20 20 21 21 20 19 19 20 20 19 20 20 21 22 21 20 19 19 20
19 20 21 20 21 22 21 20 19 15 14 13 14 16 17 16 15 14 14 14 15 14 12 10 10 10 11 11 12 12 12 13 13 13 14 14 15 16 17 17 18 19 19 20 20 20 21 20 20 19 19 20 20 21 22 22 23 23 23 23 23 23
21 22 23 21 21 23 25 25 24 21 17 15 14 16 17 18 17 15 15 15 15 14 12 10 9 9 10 11 11 12 12 12 13 13 13 14 15 15 16 17 17 18 18 18 19 19 20 20 20 19 19 19 19 20 22 23 23 24 24 25 25 25
22 23 23 22 22 24 27 32 34 30 24 18 15 15 17 19 18 16 15 15 15 14 12 9 8 8 9 10 10 11 11 12 12 13 13 14 14 15 15 16 16 16 17 17 17 17 18 18 18 18 18 18 18 19 21 22 23 24 25 25 26 26
23 23 23 22 23 26 28 32 37 36 29 21 15 15 17 19 19 17 16 15 15 14 12 9 8 8 8 9 9 10 11 11 12 12 13 13 14 14 15 15 15 15 15 16 15 15 16 16 16 16 16 17 17 18 19 21 22 23 24 25 25 25
26 25 23 22 25 29 29 31 35 33 27 20 17 16 18 20 20 18 16 16 15 14 11 9 8 8 9 9 9 10 10 11 11 12 12 13 13 13 13 14 14 14 15 15 15 15 15 15 15 15 15 16 16 17 18 19 20 21 22 22 22 22
29 25 21 21 25 28 29 31 32 27 23 19 18 18 19 20 20 18 17 16 15 14 12 9 9 9 10 10 10 10 10 11 11 11 12 12 13 13 13 13 13 13 14 15 15 15 15 15 15 15 15 16 16 16 17 17 18 18 18 18 18 18
24 21 19 21 23 23 25 29 28 23 19 18 19 20 20 21 20 19 18 17 16 15 13 11 10 11 12 12 12 12 11 11 11 10 11 11 12 13 13 13 13 13 14 14 15 15 15 15 15 15 15 16 16 16 16 16 16 16 16 16 15 15
22 22 22 22 22 21 21 23 24 22 18 18 21 22 21 21 21 20 19 18 16 15 14 13 12 12 13 13 13 13 13 12 12 11 11 11 11 12 13 14 14 14 14 14 15 15 15 15 15 15 15 15 15 15 15 15 15 15 14 14 13 14

ECMWFFLT2_500_spd_030.txt.gz
Wind_Speed
21 22 21 20 22 27 27 24 22 19 18 20 22 24 25 25 25 24 24 25 25 25 25 25 24 24 23 22 22 21 20 19 19 19 19 19 18 18 19 20 21 21 22 22 21 20 19 20 21 22 23 23 24 24 23 22 21 21 20 20 20 21
19 20 19 18 18 21 21 19 18 18 20 22 24 25 25 25 24 24 24 25 25 25 25 25 25 24 23 22 22 22 21 20 19 18 18 18 18 18 19 20 21 21 22 22 21 20 20 19 20 22 23 24 24 25 24 24 22 22 22 21 21 21
16 16 16 16 17 19 19 19 20 21 24 25 25 25 24 24 24 24 24 24 25 25 25 25 25 23 22 22 22 22 21 20 19 18 17 17 17 18 18 19 20 21 21 21 21 20 19 19 19 20 22 24 25 26 25 25 24 23 23 23 22 22
15 14 14 15 15 17 18 20 21 23 25 25 25 24 23 23 23 23 24 24 25 25 25 25 24 23 22 22 21 21 21 20 19 17 17 17 17 18 18 19 20 20 20 20 21 20 19 18 18 19 20 23 25 26 26 26 25 24 24 25 24 23
12 12 13 13 13 15 18 20 22 24 25 24 24 23 23 23 23 23 24 25 25 25 24 24 23 22 22 22 21 21 20 20 18 17 17 17 17 17 17 18 19 20 20 20 21 20 19 18 17 18 20 21 24 26 27 27 26 25 25 26 26 25
11 11 12 13 13 14 17 20 22 23 23 23 23 22 22 22 23 24 24 25 24 24 23 23 22 22 21 21 21 20 20 19 18 17 17 16 16 17 17 18 18 19 19 20 20 20 20 19 18 18 19 20 22 25 27 27 27 26 26 26 26 27
10 11 13 14 15 16 17 19 20 21 21 21 21 21 22 23 24 24 24 24 24 23 23 22 21 21 21 21 20 20 19 19 17 16 16 16 16 17 17 17 17 17 18 19 19 20 20 19 18 18 18 19 21 24 26 27 27 26 25 26 26 27
9 10 14 16 17 18 18 19 19 19 19 20 21 21 22 23 23 23 23 23 23 23 22 21 21 21 21 20 20 20 19 19 17 16 16 15 16 16 16 16 15 15 17 18 18 18 18 18 18 17 17 18 19 22 25 27 27 26 25 25 25 27
8 10 14 16 17 18 18 18 18 18 20 20 21 21 22 22 22 21 21 21 22 22 22 21 21 20 20 19 19 19 19 19 17 16 16 16 16 16 16 15 15 15 16 17 17 17 17 17 17 16 16 17 18 21 25 27 28 28 27 25 25 26
7 9 13 15 16 17 17 17 18 19 19 19 19 19 19 20 20 20 20 20 21 21 21 21 20 20 19 18 18 18 18 18 17 17 16 16 16 16 16 15 15 15 16 16 16 16 16 16 16 15 15 16 18 22 25 27 27 28 28 28 27 27
6 10 13 15 16 17 18 18 19 19 18 18 18 18 18 18 18 19 19 19 20 20 20 21 20 19 18 17 17 17 17 17 17 17 18 17 17 16 16 16 16 16 16 16 16 17 17 17 16 15 15 16 18 21 25 26 26 27 28 28 29 29
6 11 14 16 17 18 18 18 18 18 17 17 17 17 17 18 19 19 19 19 19 19 20 22 21 19 18 17 17 17 17 17 18 19 19 19 18 17 17 17 16 16 16 16 17 17 17 17 16 15 15 15 16 19 21 22 22 23 26 27 29 29
10 11 13 16 15 15 15 16 17 16 16 16 17 17 18 19 19 20 20 19 19 20 21 22 20 18 18 18 17 17 18 18 19 20 20 19 18 18 17 17 16 16 16 16 17 17 17 17 17 15 14 14 15 16 18 19 20 22 24 26 27 27
10 11 12 13 12 12 14 15 16 16 16 17 18 18 19 19 20 20 20 20 19 20 21 20 19 18 18 18 17 17 18 19 20 19 19 18 17 17 17 17 16 16 16 16 17 17 17 17 17 16 15 14 14 14 16 18 19 20 21 23 24 25
11 13 13 12 11 12 15 16 16 16 17 17 18 18 18 19 19 20 20 20 19 19 20 19 18 18 17 17 17 17 19 20 20 18 17 17 16 17 18 17 17 16 16 17 17 17 17 17 17 16 15 15 14 14 15 16 18 19 20 20 21 22
12 13 12 11 11 13 15 16 16 16 16 15 16 16 17 17 18 18 19 19 19 18 18 18 17 17 17 17 17 17 18 20 19 18 16 16 17 18 18 18 16 16 16 17 17 18 18 18 17 16 16 16 15 15 15 16 17 18 19 19 19 20
10 11 10 10 11 13 16 16 15 15 15 15 15 15 16 16 17 18 18 19 19 18 18 17 16 16 17 17 17 17 18 19 19 18 16 16 18 19 19 18 16 16 16 17 18 18 18 19 18 18 17 17 17 16 16 16 17 18 19 19 19 19
8 8 8 8 10 14 16 16 15 14 14 14 15 15 15 16 16 17 18 18 18 18 17 16 15 15 16 16 17 17 18 18 18 17 17 17 19 20 19 18 17 17 17 17 18 17 17 18 18 18 18 18 18 17 17 18 18 18 19 19 20 20
4 4 4 6 10 14 16 16 15 14 14 14 15 14 14 14 15 16 17 18 18 17 17 16 15 15 15 16 16 16 17 17 16 16 17 18 20 20 19 19 18 17 18 18 18 17 17 17 18 18 18 18 17 18 18 19 19 20 20 20 21 21
2 2 3 6 10 13 15 16 15 14 14 14 14 13 13 13 13 15 16 17 17 17 17 17 16 15 15 16 16 16 16 16 16 17 17 18 20 20 20 20 17 15 16 17 18 17 17 17 17 18 18 18 18 18 19 19 20 21 21 21 22 22
3 2 3 7 10 13 15 16 15 15 14 13 13 13 13 13 13 13 14 16 16 17 17 17 17 16 16 16 16 16 16 16 16 17 18 19 20 20 21 20 16 14 15 17 18 17 17 17 17 17 18 18 18 18 18 19 20 21 21 21 21 22
6 4 5 8 11 13 16 17 16 15 14 14 13 13 13 13 13 12 13 14 15 16 16 17 17 16 16 16 17 17 17 17 17 17 18 19 20 21 21 19 17 17 16 17 19 18 17 17 17 17 18 18 18 19 19 19 20 21 21 20 20 22
8 6 7 10 12 15 17 17 17 17 15 14 14 13 12 13 13 12 12 12 14 15 16 16 17 17 17 16 17 17 18 18 18 18 18 19 20 21 21 20 19 19 18 18 20 20 18 18 18 17 18 19 18 19 19 20 20 21 20 20 20 21
9 8 9 11 14 16 17 18 18 18 17 15 14 14 12 12 12 12 11 12 13 14 15 16 16 17 17 17 17 17 17 18 19 19 19 20 21 22 22 22 21 20 20 20 20 20 20 20 19 19 20 20 19 19 19 19 20 20 21 20 20 20
11 11 11 13 15 16 17 18 18 18 17 17 16 14 12 11 11 11 11 12 12 14 15 16 16 17 18 18 18 17 17 18 19 20 21 22 23 23 23 23 22 22 22 22 21 21 22 22 20 20 21 20 20 20 19 19 20 20 20 20 21 21
13 13 13 13 15 16 17 17 17 17 17 18 17 14 12 11 12 11 11 12 14 15 16 17 17 17 17 18 19 18 18 18 19 20 21 22 23 24 24 24 24 24 24 24 24 23 23 22 21 22 22 20 20 21 21 20 20 20 20 20 22 21
15 15 14 15 16 17 17 17 17 16 16 18 17 14 11 12 13 11 10 12 14 17 18 19 19 18 17 18 19 20 20 19 20 20 21 22 23 23 24 25 25 25 25 25 25 25 24 23 22 22 22 21 21 21 22 22 21 21 20 21 22 21
16 16 16 15 16 17 17 17 17 17 16 17 18 16 14 13 14 13 10 10 13 17 19 20 20 19 18 18 19 20 21 20 20 20 20 21 22 22 23 24 24 25 25 25 25 25 24 23 22 22 22 22 22 22 24 24 22 21 21 22 23 22
15 15 15 15 15 16 17 17 18 18 17 18 18 18 17 16 15 14 11 11 13 16 19 21 21 20 19 18 19 21 21 21 21 20 20 20 20 21 21 22 22 23 23 24 24 24 24 23 22 22 22 22 23 24 25 24 23 23 23 23 24 24
14 15 16 16 16 17 18 19 19 19 19 19 18 18 19 18 17 16 16 18 18 16 17 20 21 20 19 18 18 20 21 22 21 21 20 19 19 19 19 20 20 20 21 21 22 22 23 22 22 22 22 22 24 25 24 24 24 24 24 24 24 25
15 16 17 18 18 19 20 21 21 20 21 20 18 17 18 18 18 19 20 22 19 15 15 17 18 19 19 18 18 19 20 21 22 21 20 19 18 18 17 18 18 18 19 20 21 21 22 22 22 22 22 23 25 25 24 25 25 25 24 24 25 26
17 18 19 21 21 22 23 23 23 21 20 20 18 18 19 19 19 19 19 19 16 13 13 14 15 17 17 17 17 18 19 20 21 20 20 18 17 17 16 17 17 17 17 18 19 20 21 21 21 22 22 22 23 25 25 25 26 26 26 26 26 27
21 22 22 24 24 25 24 24 23 22 21 20 19 19 20 20 20 18 17 15 13 12 13 13 14 15 16 16 16 17 17 18 19 19 18 17 17 16 16 16 16 16 16 17 18 18 19 19 20 20 20 21 22 23 24 24 25 26 26 27 27 28
23 23 22 23 23 22 21 21 21 22 21 18 17 19 20 21 19 17 15 14 13 13 14 14 13 13 14 15 15 16 16 17 17 16 16 16 16 16 15 15 15 14 15 16 16 16 17 17 17 18 18 19 20 21 22 23 24 25 26 27 27 28
23 21 20 21 21 20 20 20 21 21 20 19 18 20 20 20 18 15 13 12 13 13 13 13 13 13 14 15 14 14 15 16 15 15 14 14 15 15 15 15 14 14 14 15 15 16 16 16 15 15 16 16 17 18 19 20 21 23 24 25 26 26
21 18 19 22 22 21 19 17 17 18 18 19 19 20 20 19 18 15 12 11 13 13 13 14 14 14 15 15 15 14 14 15 15 14 14 14 14 15 15 15 15 15 15 15 15 16 16 16 15 15 14 14 15 16 16 17 18 19 20 21 22 22
19 17 18 19 17 16 13 10 11 14 15 17 17 17 19 19 18 15 11 12 15 15 15 16 16 16 16 15 15 15 14 14 14 14 14 14 14 14 15 15 15 15 16 16 16 16 16 16 16 15 14 14 14 14 15 15 16 17 18 18 18 18

ECMWFFLT2_500_spd_033.txt.gz
Wind_Speed
18 17 17 15 15 17 18 16 18 24 27 26 25 23 21 20 21 23 24 24 24 24 23 23 23 22 22 22 22 21 21 20 20 20 19 19 19 19 20 20 20 20 20 20 21 21 20 20 21 23 24 25 25 24 23 22 21 20 19 19 18 18
15 15 14 14 14 16 16 14 16 22 24 22 22 22 21 21 23 24 24 24 24 24 24 23 23 23 24 23 23 22 21 21 20 20 19 19 19 19 19 20 20 20 20 20 20 21 20 20 20 22 24 25 26 26 25 24 22 21 21 20 20 20
15 14 14 13 13 14 14 13 16 20 20 20 21 22 22 23 24 25 25 24 24 24 24 24 24 24 24 24 23 22 22 21 20 19 19 19 19 19 19 20 20 20 20 19 20 20 20 20 20 21 23 25 26 27 26 26 24 23 22 21 21 21
15 15 15 15 15 14 14 15 16 18 19 20 22 22 23 24 25 25 25 24 24 24 24 24 24 24 25 25 24 23 21 21 20 19 18 18 18 19 19 19 20 20 20 19 19 19 19 19 19 20 22 24 26 27 27 27 26 25 24 23 23 23
14 15 15 15 15 13 14 16 15 17 20 20 21 22 22 23 25 24 24 24 24 24 24 24 24 25 25 25 24 22 21 21 20 18 18 17 17 18 18 19 20 20 20 19 19 18 18 17 18 19 21 23 25 27 28 28 27 26 25 25 24 24
13 14 14 14 14 13 14 15 15 16 19 20 21 21 21 22 24 23 23 23 23 24 24 24 24 25 25 24 23 22 21 20 19 18 17 17 17 17 18 19 19 19 19 19 18 18 17 16 16 17 19 21 24 26 27 28 28 27 26 26 26 25
15 14 14 13 13 14 14 14 14 15 17 18 20 20 21 22 23 23 23 23 23 23 24 24 24 24 24 22 22 21 20 20 19 18 17 17 17 17 17 18 18 18 18 18 17 17 17 17 17 17 18 20 22 24 27 28 28 27 27 26 26 26
14 12 11 11 12 14 14 13 13 13 16 18 19 20 21 22 22 22 22 22 22 22 22 22 23 23 22 21 21 21 20 20 20 19 17 16 17 17 18 18 18 18 18 17 17 17 17 16 17 17 18 20 21 23 25 27 28 28 28 27 27 26
11 10 8 9 13 14 12 12 12 14 16 17 18 19 20 21 21 21 21 21 21 21 21 21 21 21 20 20 20 21 20 20 19 19 17 17 17 18 19 19 18 18 18 18 17 16 15 15 16 16 18 19 21 22 24 26 28 29 29 28 27 25
12 11 9 11 14 13 11 10 12 14 15 16 17 18 19 20 20 20 20 20 20 20 20 20 20 20 19 19 20 20 20 19 18 18 17 18 19 19 20 19 19 19 19 18 16 15 14 15 15 15 16 18 19 21 23 25 27 29 30 30 29 26
13 13 11 13 14 12 11 11 12 14 15 16 17 18 18 19 19 19 19 19 19 18 19 19 18 18 17 18 19 19 19 18 17 18 18 19 19 20 20 19 19 19 18 18 16 15 15 15 14 14 15 16 17 19 21 23 25 28 29 30 30 28
13 12 11 13 13 11 11 11 13 14 14 13 14 16 17 17 18 18 18 18 18 17 18 18 17 16 17 18 18 17 16 16 17 18 19 19 19 19 19 19 19 18 18 17 17 16 16 15 15 14 14 15 16 18 20 22 23 26 27 28 30 30
13 13 11 11 11 11 11 11 11 11 10 11 13 15 16 17 17 18 18 17 17 16 17 18 17 16 16 18 18 15 14 15 16 18 19 19 20 19 19 19 19 18 18 17 17 18 17 16 15 15 15 15 15 16 18 20 21 23 24 24 28 30
13 12 11 11 11 11 11 10 9 7 9 11 13 14 16 17 17 18 18 17 16 16 17 17 17 16 15 16 18 15 13 15 17 18 19 19 20 20 19 19 19 18 17 17 18 18 18 17 16 15 15 15 15 16 16 17 18 20 20 19 22 26
12 12 10 10 11 11 10 9 7 7 10 12 13 14 15 16 16 17 17 16 16 16 16 16 16 16 15 15 17 15 13 15 17 18 18 19 20 19 19 19 18 18 18 18 19 19 18 17 17 16 16 16 16 16 16 16 17 17 18 17 19 22
12 11 11 11 11 11 10 9 8 9 11 12 13 14 14 14 15 15 16 16 16 15 16 16 15 16 15 16 17 15 14 16 17 18 18 18 19 19 18 18 18 18 19 19 19 19 18 18 17 16 16 16 16 16 16 17 17 17 17 18 19 20
12 10 11 11 11 11 10 9 10 10 11 12 12 13 13 13 14 14 15 15 16 15 15 16 15 15 15 15 16 16 16 16 17 17 17 17 18 18 17 17 18 19 20 20 19 19 19 18 18 17 16 16 16 16 17 17 18 18 19 19 20 20
10 10 11 10 10 11 11 11 11 10 11 11 12 12 12 13 13 14 14 14 15 15 15 15 15 15 15 15 15 16 16 16 17 17 16 17 18 18 18 19 20 20 20 19 19 18 18 17 16 16 16 16 17 17 17 18 18 19 20 20 21 21
8 7 8 8 10 11 12 11 11 10 10 11 12 12 12 12 13 14 14 14 14 14 15 15 15 15 15 15 15 16 16 16 16 16 16 17 17 18 19 20 20 19 20 19 18 18 17 16 15 15 15 16 17 18 18 19 19 19 20 21 21 22
7 5 7 8 10 12 12 11 10 9 9 10 11 11 12 12 13 13 14 14 14 14 14 15 15 15 16 16 16 16 16 16 16 16 16 17 18 18 19 19 19 19 20 18 16 16 15 14 14 15 15 15 17 18 19 19 19 20 20 21 22 22
9 9 9 10 12 13 13 11 10 9 8 10 11 11 12 13 13 13 13 14 14 14 14 14 15 15 16 16 16 16 16 16 16 16 17 17 18 18 18 18 19 19 19 17 15 14 14 13 14 14 15 15 16 17 18 19 19 20 20 21 21 22
12 10 10 11 13 13 13 11 10 9 9 11 11 13 14 14 15 14 14 13 13 14 14 13 14 15 16 16 16 16 17 17 17 17 17 18 18 18 18 18 18 18 18 17 16 15 15 15 15 15 15 16 16 17 18 19 20 20 20 21 21 21
11 10 10 12 14 14 13 11 11 10 11 11 12 14 16 16 15 15 15 14 12 12 12 13 13 14 15 16 17 17 17 17 17 17 18 18 19 18 18 18 18 19 19 19 17 17 16 17 17 17 17 17 17 17 18 19 20 20 21 21 20 20
11 11 12 13 14 14 13 12 12 12 12 13 14 15 17 16 15 15 16 15 12 10 10 11 12 12 14 16 17 17 17 17 17 18 18 19 19 19 19 18 18 19 20 20 19 19 18 19 19 18 17 17 17 18 19 19 20 20 21 20 20 20
13 13 14 15 16 15 14 13 13 13 14 14 15 16 16 16 14 15 17 15 12 10 9 10 10 11 13 15 16 17 18 18 18 18 18 19 20 20 20 20 20 20 20 21 20 20 20 21 20 19 18 18 18 18 19 19 19 20 20 20 19 20
16 16 16 16 16 15 14 14 14 14 15 15 16 16 16 15 14 16 17 15 13 11 10 10 10 11 13 15 16 17 18 18 19 19 19 19 20 20 21 21 21 21 21 22 22 22 22 22 22 20 19 19 19 18 18 18 19 20 20 19 19 19
16 15 15 15 16 15 14 14 14 15 15 16 17 17 15 14 15 16 16 15 14 13 12 11 11 11 12 14 16 18 19 19 19 20 20 20 20 21 21 21 21 22 22 22 22 23 22 23 22 21 20 20 20 19 19 18 19 20 20 20 20 19
15 15 15 16 16 15 14 14 15 16 16 16 18 17 16 15 15 17 17 15 15 14 13 13 14 15 14 14 16 18 19 19 20 20 21 21 21 21 21 21 21 21 21 21 22 22 22 22 22 21 20 20 20 20 20 20 20 20 20 20 21 20
16 16 17 17 16 16 15 16 17 17 17 17 18 18 16 15 15 17 18 18 17 16 16 18 20 20 17 15 16 17 19 20 20 20 21 22 22 22 22 22 22 21 21 21 21 21 21 20 20 20 20 19 19 19 20 20 20 20 21 21 22 22
20 19 18 18 17 16 16 17 18 19 19 19 19 18 17 16 15 16 17 19 19 20 20 22 23 21 18 16 16 17 18 19 20 21 22 23 23 23 23 23 23 22 22 22 21 21 21 20 19 19 19 18 18 19 20 20 20 20 21 21 22 23
22 20 19 18 17 18 18 19 20 21 22 21 20 19 17 16 16 15 15 17 19 21 22 22 21 20 17 16 16 17 18 18 19 20 21 23 24 25 24 24 24 23 23 23 22 21 21 20 19 19 18 18 18 19 19 20 20 19 20 21 22 23
22 21 19 19 19 20 20 20 21 22 23 23 22 21 18 16 16 16 16 16 18 20 21 21 19 17 15 15 15 16 17 18 18 19 20 22 24 25 25 25 25 25 24 23 22 22 21 20 20 19 19 18 18 18 19 19 19 19 19 20 21 22
21 21 20 21 21 21 21 22 23 24 25 25 23 22 19 17 17 17 17 16 17 19 19 18 17 15 14 14 14 15 16 17 18 18 19 20 22 24 25 25 25 25 25 24 23 22 21 20 20 19 19 18 18 18 18 18 18 18 18 19 20 21
20 21 21 21 22 21 21 22 23 24 24 24 23 21 18 17 17 17 17 16 17 18 16 16 15 15 14 13 13 14 15 16 17 17 18 20 21 22 23 24 24 24 24 23 22 21 21 20 20 19 18 18 18 18 18 17 17 17 17 18 19 20
23 22 21 21 20 20 20 21 21 21 21 22 21 19 18 18 18 19 18 17 17 17 16 15 15 14 14 13 13 13 14 15 16 16 17 19 20 21 22 22 22 22 22 21 20 20 19 19 19 18 18 17 17 17 17 17 17 17 17 17 17 18
18 15 16 16 16 17 18 18 17 16 16 16 15 16 17 19 21 22 20 18 18 17 15 15 14 13 13 13 13 13 13 14 15 16 17 18 19 20 21 21 21 21 20 19 19 19 18 18 18 17 17 17 17 16 16 16 16 16 16 16 16 17
16 14 13 12 11 12 12 11 10 8 9 10 11 12 15 18 20 21 19 19 19 18 17 16 15 15 14 13 13 13 14 14 15 16 16 17 18 19 19 20 20 20 19 19 18 18 18 18 17 17 16 16 16 16 16 16 15 15 15 16 16 15

ECMWFFLT2_500_spd_036.txt.gz
Wind_Speed
26 23 22 20 19 20 20 21 22 20 18 21 26 31 33 35 33 31 28 26 24 23 23 23 23 23 22 22 20 19 19 18 18 18 17 16 16 16 16 17 18 19 20 20 20 20 21 21 22 22 22 22 23 23 22 22 21 21 20 19 19 18
21 20 19 19 18 18 19 20 21 19 18 22 27 31 31 30 27 23 21 21 20 21 21 22 23 23 22 21 19 19 19 19 18 18 17 16 16 16 16 17 18 19 20 20 20 20 21 21 22 23 23 23 24 24 24 23 23 22 22 21 21 20
16 16 15 15 15 17 19 19 19 19 20 23 26 27 25 22 20 19 19 20 21 21 22 24 23 23 22 21 20 19 19 19 19 18 17 16 16 16 16 17 18 19 19 20 20 20 20 21 22 23 23 24 24 25 25 25 24 24 23 23 22 22
14 14 14 15 15 15 16 17 17 17 20 22 22 21 19 18 18 19 20 21 22 22 22 24 24 23 23 22 20 19 19 19 19 18 17 16 16 15 16 18 19 19 19 19 19 19 20 20 21 23 23 23 24 24 25 26 26 25 25 24 24 23
13 14 15 14 15 14 14 15 14 14 16 17 17 17 17 18 19 19 21 22 23 23 23 23 23 22 21 21 21 21 20 19 19 19 18 17 16 16 16 17 18 19 19 19 19 19 19 20 21 22 23 23 24 24 25 26 27 27 26 25 25 24
14 15 15 15 14 14 14 14 14 14 14 14 15 17 19 20 21 20 21 21 22 23 22 22 22 21 21 21 21 21 20 19 19 19 18 18 17 17 16 17 17 18 19 19 19 19 19 19 20 22 22 23 23 24 25 26 27 27 27 27 26 25
16 15 15 14 14 14 15 14 15 15 14 16 18 18 19 20 20 19 19 20 20 21 22 23 23 23 23 22 21 20 20 19 19 19 19 18 18 17 16 17 17 17 18 18 18 18 18 19 20 21 21 22 22 23 24 25 26 27 28 28 27 25
15 14 14 14 16 16 16 16 16 15 16 18 18 17 17 17 17 17 18 19 20 21 21 22 22 22 22 21 20 20 19 19 19 19 19 19 18 17 16 17 17 17 17 17 17 18 18 19 19 20 21 21 22 22 23 24 25 26 28 29 27 26
14 13 12 15 17 17 15 17 18 18 19 19 16 15 14 14 15 16 17 18 19 19 19 20 21 21 21 20 19 19 19 19 18 18 18 18 18 17 16 16 16 17 17 17 17 17 18 18 19 20 21 21 22 22 23 23 24 26 28 29 28 27
14 12 12 14 15 16 17 18 18 17 17 17 16 14 14 14 15 16 17 17 17 17 18 18 19 19 18 17 18 19 19 18 17 17 16 16 16 16 16 16 16 16 17 17 17 17 17 18 19 20 20 21 22 22 23 23 24 25 27 28 28 27
12 13 13 14 14 16 17 17 16 15 15 15 15 14 14 14 14 14 15 15 15 16 17 17 18 17 16 16 17 17 17 17 16 15 14 14 15 16 15 15 15 16 16 17 17 17 17 17 18 18 19 20 21 22 22 22 23 24 26 27 27 27
11 13 13 13 13 14 16 15 13 12 13 13 13 13 12 12 12 12 13 13 14 15 15 15 16 15 15 16 16 16 16 16 15 14 13 13 14 14 15 15 15 15 16 16 17 17 17 16 16 17 17 18 20 20 21 22 23 23 25 25 26 27
11 13 13 14 14 15 17 14 10 10 12 12 11 11 10 10 11 11 12 12 13 14 14 15 14 14 14 14 14 15 15 14 14 12 12 12 13 14 15 15 15 15 15 16 16 16 16 16 16 16 17 18 19 20 20 21 22 23 24 24 24 26
13 15 15 15 16 17 16 13 10 10 10 10 10 10 10 10 10 11 11 12 12 13 14 14 14 13 13 13 13 13 13 13 13 12 11 12 12 14 15 15 15 15 15 15 16 16 16 16 16 16 17 18 18 19 20 21 21 22 22 23 23 24
15 17 16 15 16 16 15 12 10 10 10 10 10 10 10 11 11 10 10 11 11 12 13 13 13 12 12 13 13 12 12 13 12 12 12 11 12 14 15 15 14 14 15 15 16 16 17 17 16 16 16 17 18 18 19 20 21 21 21 21 21 22
17 15 14 15 15 16 14 12 11 11 11 11 11 11 11 11 11 11 11 11 10 11 12 12 12 12 12 12 12 12 12 12 12 13 12 12 13 13 14 14 13 13 15 16 17 17 17 17 16 16 16 16 17 18 19 20 20 21 21 20 20 19
16 14 14 15 15 14 13 11 11 12 12 12 12 12 11 11 11 11 11 11 11 12 12 12 11 11 11 11 11 11 12 12 12 13 13 13 14 13 13 13 12 13 15 16 17 17 17 17 16 16 16 16 17 18 19 19 20 21 21 21 20 19
14 14 15 14 12 11 11 11 11 12 13 13 13 13 12 12 11 12 12 12 13 13 13 13 12 11 11 11 11 11 12 12 12 13 13 14 14 13 12 12 13 14 15 16 16 16 17 17 17 16 16 16 16 17 18 19 20 21 21 21 19 18
12 12 12 10 9 8 9 10 11 12 13 13 13 13 13 12 12 12 11 12 13 13 14 14 13 12 11 11 11 11 12 12 12 13 13 13 14 13 11 12 13 14 15 15 15 16 16 16 17 17 16 16 16 16 17 18 19 20 21 21 20 18
12 12 10 9 8 9 9 10 12 13 14 13 13 13 13 12 12 11 11 12 13 13 14 15 15 14 12 11 11 11 12 12 13 13 13 13 13 12 12 12 13 14 14 15 15 15 15 16 17 17 17 16 16 16 16 17 18 19 20 20 21 20
13 13 11 11 11 11 11 12 13 14 14 13 13 12 12 12 11 11 12 13 13 14 14 15 15 15 14 12 11 11 12 12 13 13 13 13 13 13 12 13 13 14 14 14 15 14 14 15 15 15 15 16 17 17 17 17 16 17 18 19 19 20
13 13 14 14 13 13 13 14 14 15 14 13 12 12 11 11 11 11 13 14 15 14 15 15 15 15 14 12 11 11 12 12 13 13 14 13 13 14 14 13 13 13 14 14 14 13 13 14 13 14 14 15 16 16 17 16 16 16 17 18 18 19
15 15 16 16 16 16 15 15 15 15 14 13 12 12 11 11 11 12 13 15 15 15 14 15 16 15 14 13 11 10 11 12 13 14 14 14 14 14 14 14 14 13 13 14 14 14 14 14 14 14 15 16 15 16 17 16 16 16 16 17 18 18
16 16 17 18 18 17 16 15 15 14 14 13 12 12 11 11 11 12 13 15 15 15 14 14 15 15 15 14 12 10 10 11 12 14 15 15 15 15 15 15 15 15 14 15 15 15 15 15 16 16 16 16 16 16 17 17 17 17 16 16 17 18
16 17 19 19 19 18 16 15 13 13 14 13 12 12 11 11 11 11 13 14 15 15 14 14 14 14 14 15 14 12 11 10 11 13 15 15 16 16 16 17 17 16 16 15 16 17 17 17 17 18 18 17 16 16 17 16 17 17 16 16 17 17
19 19 20 21 20 19 17 16 14 14 14 14 13 13 12 12 12 12 12 13 14 15 14 14 14 13 13 14 14 14 14 12 12 12 14 15 16 16 17 18 18 18 17 17 17 18 19 19 19 20 19 18 18 17 17 17 17 17 17 17 17 17
20 21 21 22 21 19 18 17 16 15 15 15 14 14 14 14 13 13 13 13 14 16 16 15 14 14 13 13 13 15 16 16 14 13 13 15 16 17 18 18 19 19 19 19 19 19 20 20 20 21 20 20 19 19 18 18 17 18 17 16 16 17
21 22 22 22 21 20 18 18 17 16 16 16 15 16 16 15 15 15 15 14 14 16 17 17 16 16 16 16 17 18 18 19 18 15 14 14 15 17 18 19 20 20 20 20 20 20 21 21 21 21 21 21 20 20 19 19 18 18 17 17 16 17
23 25 25 24 23 21 19 18 18 17 16 16 16 17 17 16 16 16 16 16 15 16 18 19 19 19 19 20 21 21 19 19 19 17 15 15 16 16 17 18 19 20 21 21 21 22 21 21 21 21 21 20 20 20 20 20 19 18 19 19 18 18
25 26 26 26 24 20 18 18 18 18 17 17 17 17 17 17 16 16 17 17 16 16 17 19 20 21 21 22 23 22 20 19 19 18 16 15 15 16 17 18 18 20 21 21 22 22 22 22 21 21 20 20 20 20 20 20 20 19 20 20 19 18
22 23 25 26 24 18 16 18 18 18 18 17 17 17 17 17 17 17 18 18 18 18 18 19 20 21 21 22 22 22 20 19 18 17 16 15 15 15 16 16 17 18 20 21 22 22 22 22 21 21 21 20 20 20 20 20 20 20 20 20 20 19
21 22 24 26 24 18 16 17 18 19 18 18 17 17 18 18 19 20 21 20 20 20 21 21 21 20 20 21 21 20 19 18 17 16 15 14 14 14 15 15 16 18 19 20 21 22 22 22 22 21 21 21 21 21 21 21 20 19 19 20 20 20
22 24 24 25 25 20 17 17 18 19 20 19 19 18 19 20 21 22 23 23 22 22 22 21 20 19 20 20 18 17 17 17 16 15 14 14 14 14 14 15 16 17 18 19 21 21 22 22 22 21 21 21 21 21 21 21 20 20 19 20 20 20
25 26 26 26 25 21 18 18 19 21 22 21 20 20 20 20 20 22 22 22 21 20 20 19 18 18 18 18 16 15 15 15 14 14 13 13 13 14 14 14 15 16 18 19 20 20 21 21 20 20 20 20 20 19 19 20 20 20 19 19 19 20
25 25 26 27 27 23 21 20 21 22 23 23 21 20 19 19 20 22 23 22 21 21 20 20 18 17 17 17 15 14 14 13 13 12 12 12 13 13 14 14 15 16 17 18 19 20 20 19 19 19 18 18 18 17 17 18 18 18 18 18 18 18
24 24 24 27 28 27 23 21 22 23 23 22 19 16 16 17 20 23 24 23 22 23 23 22 19 17 16 16 14 13 13 13 12 12 11 11 12 12 13 14 14 15 16 17 18 18 19 19 18 18 17 17 16 16 16 16 16 16 16 16 16 16
28 26 23 25 28 26 23 20 20 20 19 16 12 11 12 15 18 21 23 22 22 23 22 20 19 17 15 15 15 14 14 14 14 13 12 12 11 12 12 13 14 15 16 16 17 17 18 18 18 17 16 16 15 15 15 15 15 15 15 15 15 15